Location: Chateh
(58.6667°N, 118.6000°W)
Time: 01:50:45
(UTC+00:00)

DOVE 4 - Pass Details

Date: 15 December 2023
Orbit: 583 x 781 km, 97.8° (Epoch: 23 February)

Event Time Altitude Azimuth Distance (km) Brightness Sun altitude
Rises 14:21:34 0° 94° (E) 2,964 ? -15.7°
Reaches altitude 10° 14:25:25 10° 60° (ENE) 2,010 ? -15.2°
Maximum altitude 14:26:40 11° 43° (NE) 1,922 ? -15.1°
Drops below altitude 10° 14:27:55 10° 26° (NNE) 1,986 ? -14.9°
Enters shadow 14:31:15 - 354° (N) 2,747 ? -14.5°
